This is the latest recevied weather packets stored in our database for station/object N0ZJT. If no packets are shown the sender has not sent any weather packets the latest 10 day(s).
| Time | Temp. | Humidity | Pressure | Rain* | Wind** | Luminosity | Snow |
|---|---|---|---|---|---|---|---|
| 1777613581 | 5.56° C | 58% | 978.4 hPa | 0 mm | - | - | - |
| 1777613330 | 5.56° C | 58% | 978.4 hPa | 0 mm | - | - | - |
| 1777612490 | 5.56° C | 57% | 978.3 hPa | 0 mm | - | - | - |
| 1777611530 | 6.11° C | 56% | 978.4 hPa | 0 mm | - | - | - |
| 1777610690 | 6.11° C | 55% | 978.2 hPa | 0 mm | - | - | - |
| 1777609981 | 6.11° C | 54% | 978.1 hPa | 0 mm | - | - | - |
| 1777609730 | 6.11° C | 54% | 978.1 hPa | 0 mm | - | - | - |
| 1777608890 | 6.67° C | 52% | 978.1 hPa | 0 mm | - | - | - |
| 1777607930 | 6.67° C | 51% | 978.2 hPa | 0 mm | - | - | - |
| 1777607090 | 7.22° C | 51% | 978.4 hPa | 0 mm | - | - | - |
| 1777606130 | 7.22° C | 50% | 978.3 hPa | 0 mm | - | - | - |
| 1777605290 | 7.22° C | 49% | 978.3 hPa | 0 mm | - | - | - |
| 1777604330 | 7.78° C | 48% | 978.3 hPa | 0 mm | - | - | - |
| 1777603742 | 7.78° C | 48% | 978.2 hPa | 0 mm | - | - | - |
| 1777603490 | 7.78° C | 48% | 978.2 hPa | 0 mm | - | - | - |
| 1777602530 | 8.33° C | 47% | 978.1 hPa | 0 mm | - | - | - |
| 1777601690 | 8.33° C | 46% | 977.9 hPa | 0 mm | - | - | - |
| 1777600730 | 8.89° C | 45% | 977.8 hPa | 0 mm | - | - | - |
| 1777600142 | 8.89° C | 44% | 977.5 hPa | 0 mm | - | - | - |
| 1777599890 | 8.89° C | 44% | 977.5 hPa | 0 mm | - | - | - |
| 1777598930 | 9.44° C | 44% | 977.4 hPa | 0 mm | - | - | - |
| 1777598339 | 9.44° C | 43% | 977.2 hPa | 0 mm | - | - | - |
| 1777598090 | 9.44° C | 43% | 977.2 hPa | 0 mm | - | - | - |
| 1777597130 | 10° C | 42% | 977 hPa | 0 mm | - | - | - |
| 1777596541 | 10° C | 41% | 976.9 hPa | 0 mm | - | - | - |
* Rain latest hour (hover to see other rain measurements)
** Current wind speed in m/s (hover to see current wind gust speed)